EUTELSAT 117 WEST B

Last updated on Tue Jul 01 2025 00:02:47 GMT+0000 (Coordinated Universal Time)

1 41589U 16038B 25181.47331101 -.00000011 00000+0 00000+0 0 9993 2 41589 0.0089 194.9963 0000096 233.9314 263.2450 1.00267753 33130
UTC large
Height (km)
Speed (km/s)
/
Latitude / Longitude
Inclination (degrees)
Orbital Period (minutes)
Azimuth
Elevation
Range (km)
Doppler Factor

Next 0 passes for location: London (51.5072 / 0.1276)

Sorry there are no passes over London.